Year,Month,Day,Hour,Minute,Value (Times are PST for temperature in C)
2017,06,21,00,00,11.70
2017,06,21,00,01,11.70
2017,06,21,00,02,11.70
2017,06,21,00,03,11.70
2017,06,21,00,04,11.70
2017,06,21,00,05,11.70
2017,06,21,00,06,11.70
2017,06,21,00,07,11.70
2017,06,21,00,08,11.70
2017,06,21,00,09,11.70
2017,06,21,00,10,11.70
2017,06,21,00,11,11.60
2017,06,21,00,12,11.60
2017,06,21,00,13,11.60
2017,06,21,00,14,11.60
2017,06,21,00,15,11.60
2017,06,21,00,16,11.60
2017,06,21,00,17,11.60
2017,06,21,00,18,11.60
2017,06,21,00,19,11.60
2017,06,21,00,20,11.60
2017,06,21,00,21,11.60
2017,06,21,00,22,11.60
2017,06,21,00,23,11.60
2017,06,21,00,24,11.60
2017,06,21,00,25,11.60
2017,06,21,00,26,11.60
2017,06,21,00,27,11.60
2017,06,21,00,28,11.60
2017,06,21,00,29,11.60
2017,06,21,00,30,11.60
2017,06,21,00,31,11.60
2017,06,21,00,32,11.60
2017,06,21,00,33,11.60
2017,06,21,00,34,11.60
2017,06,21,00,35,11.60
2017,06,21,00,36,11.60
2017,06,21,00,37,11.60
2017,06,21,00,38,11.60
2017,06,21,00,39,11.60
2017,06,21,00,40,11.60
2017,06,21,00,41,11.60
2017,06,21,00,42,11.60
2017,06,21,00,43,11.60
2017,06,21,00,44,11.50
2017,06,21,00,45,11.40
2017,06,21,00,46,11.40
2017,06,21,00,47,11.40
2017,06,21,00,48,11.40
2017,06,21,00,49,11.40
2017,06,21,00,50,11.40
2017,06,21,00,51,11.40
2017,06,21,00,52,11.40
2017,06,21,00,53,11.40
2017,06,21,00,54,11.40
2017,06,21,00,55,11.40
2017,06,21,00,56,11.40
2017,06,21,00,57,11.40
2017,06,21,00,58,11.40
2017,06,21,00,59,11.40
2017,06,21,01,00,11.40
2017,06,21,01,01,11.40
2017,06,21,01,02,11.40
2017,06,21,01,03,11.40
2017,06,21,01,04,11.40
2017,06,21,01,05,11.40
2017,06,21,01,06,11.40
2017,06,21,01,07,11.40
2017,06,21,01,08,11.40
2017,06,21,01,09,11.40
2017,06,21,01,10,11.40
2017,06,21,01,11,11.40
2017,06,21,01,12,11.40
2017,06,21,01,13,11.40
2017,06,21,01,14,11.40
2017,06,21,01,15,11.40
2017,06,21,01,16,11.40
2017,06,21,01,17,11.40
2017,06,21,01,18,11.40
2017,06,21,01,19,11.40
2017,06,21,01,20,11.40
2017,06,21,01,21,11.40
2017,06,21,01,22,11.40
2017,06,21,01,23,11.40
2017,06,21,01,24,11.40
2017,06,21,01,25,11.40
2017,06,21,01,26,11.40
2017,06,21,01,27,11.30
2017,06,21,01,28,11.30
2017,06,21,01,29,11.30
2017,06,21,01,30,11.30
2017,06,21,01,31,11.30
2017,06,21,01,32,11.30
2017,06,21,01,33,11.30
2017,06,21,01,34,11.30
2017,06,21,01,35,11.30
2017,06,21,01,36,11.30
2017,06,21,01,37,11.30
2017,06,21,01,38,11.30
2017,06,21,01,39,11.30
2017,06,21,01,40,11.30
2017,06,21,01,41,11.30
2017,06,21,01,42,11.30
2017,06,21,01,43,11.20
2017,06,21,01,44,11.20
2017,06,21,01,45,11.20
2017,06,21,01,46,11.20
2017,06,21,01,47,11.20
2017,06,21,01,48,11.20
2017,06,21,01,49,11.20
2017,06,21,01,50,11.20
2017,06,21,01,51,11.20
2017,06,21,01,52,11.20
2017,06,21,01,53,11.20
2017,06,21,01,54,11.20
2017,06,21,01,55,11.20
2017,06,21,01,56,11.20
2017,06,21,01,57,11.20
2017,06,21,01,58,11.20
2017,06,21,01,59,11.20
2017,06,21,02,00,11.20
2017,06,21,02,01,11.20
2017,06,21,02,02,11.20
2017,06,21,02,03,11.10
2017,06,21,02,04,11.10
2017,06,21,02,05,11.10
2017,06,21,02,06,11.10
2017,06,21,02,07,11.10
2017,06,21,02,08,11.10
2017,06,21,02,09,11.10
2017,06,21,02,10,11.20
2017,06,21,02,11,11.20
2017,06,21,02,12,11.20
2017,06,21,02,13,11.20
2017,06,21,02,14,11.20
2017,06,21,02,15,11.20
2017,06,21,02,16,11.20
2017,06,21,02,17,11.20
2017,06,21,02,18,11.20
2017,06,21,02,19,11.20
2017,06,21,02,20,11.20
2017,06,21,02,21,11.20
2017,06,21,02,22,11.20
2017,06,21,02,23,11.20
2017,06,21,02,24,11.20
2017,06,21,02,25,11.20
2017,06,21,02,26,11.20
2017,06,21,02,27,11.20
2017,06,21,02,28,11.20
2017,06,21,02,29,11.20
2017,06,21,02,30,11.20
2017,06,21,02,31,11.20
2017,06,21,02,32,11.20
2017,06,21,02,33,11.20
2017,06,21,02,34,11.20
2017,06,21,02,35,11.20
2017,06,21,02,36,11.20
2017,06,21,02,37,11.20
2017,06,21,02,38,11.20
2017,06,21,02,39,11.20
2017,06,21,02,40,11.20
2017,06,21,02,41,11.20
2017,06,21,02,42,11.20
2017,06,21,02,43,11.20
2017,06,21,02,44,11.20
2017,06,21,02,45,11.20
2017,06,21,02,46,11.20
2017,06,21,02,47,11.20
2017,06,21,02,48,11.20
2017,06,21,02,49,11.20
2017,06,21,02,50,11.20
2017,06,21,02,51,11.10
2017,06,21,02,52,11.10
2017,06,21,02,53,11.10
2017,06,21,02,54,11.10
2017,06,21,02,55,11.10
2017,06,21,02,56,11.10
2017,06,21,02,57,11.10
2017,06,21,02,58,11.10
2017,06,21,02,59,11.10
2017,06,21,03,00,11.10
2017,06,21,03,01,11.10
2017,06,21,03,02,11.10
2017,06,21,03,03,11.10
2017,06,21,03,04,11.10
2017,06,21,03,05,11.10
2017,06,21,03,06,11.10
2017,06,21,03,07,11.10
2017,06,21,03,08,11.10
2017,06,21,03,09,11.10
2017,06,21,03,10,11.10
2017,06,21,03,11,11.10
2017,06,21,03,12,11.10
2017,06,21,03,13,11.10
2017,06,21,03,14,11.10
2017,06,21,03,15,11.10
2017,06,21,03,16,11.10
2017,06,21,03,17,11.10
2017,06,21,03,18,11.10
2017,06,21,03,19,11.10
2017,06,21,03,20,11.10
2017,06,21,03,21,11.10
2017,06,21,03,22,11.10
2017,06,21,03,23,11.10
2017,06,21,03,24,11.10
2017,06,21,03,25,11.10
2017,06,21,03,26,11.10
2017,06,21,03,27,11.00
2017,06,21,03,28,10.90
2017,06,21,03,29,10.90
2017,06,21,03,30,10.90
2017,06,21,03,31,10.90
2017,06,21,03,32,10.90
2017,06,21,03,33,10.90
2017,06,21,03,34,11.00
2017,06,21,03,35,11.10
2017,06,21,03,36,11.10
2017,06,21,03,37,11.10
2017,06,21,03,38,11.10
2017,06,21,03,39,11.00
2017,06,21,03,40,10.90
2017,06,21,03,41,10.90
2017,06,21,03,42,10.90
2017,06,21,03,43,10.90
2017,06,21,03,44,10.90
2017,06,21,03,45,10.90
2017,06,21,03,46,10.90
2017,06,21,03,47,10.90
2017,06,21,03,48,10.90
2017,06,21,03,49,10.90
2017,06,21,03,50,10.90
2017,06,21,03,51,10.90
2017,06,21,03,52,10.90
2017,06,21,03,53,10.90
2017,06,21,03,54,10.90
2017,06,21,03,55,10.90
2017,06,21,03,56,10.90
2017,06,21,03,57,10.90
2017,06,21,03,58,10.90
2017,06,21,03,59,10.90
2017,06,21,04,00,10.90
2017,06,21,04,01,10.90
2017,06,21,04,02,10.90
2017,06,21,04,03,10.90
2017,06,21,04,04,10.90
2017,06,21,04,05,10.90
2017,06,21,04,06,10.90
2017,06,21,04,07,10.90
2017,06,21,04,08,10.90
2017,06,21,04,09,10.90
2017,06,21,04,10,10.90
2017,06,21,04,11,10.90
2017,06,21,04,12,10.90
2017,06,21,04,13,10.90
2017,06,21,04,14,10.90
2017,06,21,04,15,10.90
2017,06,21,04,16,10.90
2017,06,21,04,17,10.90
2017,06,21,04,18,10.80
2017,06,21,04,19,10.80
2017,06,21,04,20,10.80
2017,06,21,04,21,10.80
2017,06,21,04,22,10.80
2017,06,21,04,23,10.80
2017,06,21,04,24,10.80
2017,06,21,04,25,10.80
2017,06,21,04,26,10.80
2017,06,21,04,27,10.80
2017,06,21,04,28,10.80
2017,06,21,04,29,10.80
2017,06,21,04,30,10.80
2017,06,21,04,31,10.80
2017,06,21,04,32,10.80
2017,06,21,04,33,10.80
2017,06,21,04,34,10.70
2017,06,21,04,35,10.70
2017,06,21,04,36,10.70
2017,06,21,04,37,10.70
2017,06,21,04,38,10.70
2017,06,21,04,39,10.70
2017,06,21,04,40,10.70
2017,06,21,04,41,10.70
2017,06,21,04,42,10.70
2017,06,21,04,43,10.70
2017,06,21,04,44,10.60
2017,06,21,04,45,10.60
2017,06,21,04,46,10.60
2017,06,21,04,47,10.60
2017,06,21,04,48,10.60
2017,06,21,04,49,10.60
2017,06,21,04,50,10.60
2017,06,21,04,51,10.60
2017,06,21,04,52,10.60
2017,06,21,04,53,10.60
2017,06,21,04,54,10.60
2017,06,21,04,55,10.60
2017,06,21,04,56,10.60
2017,06,21,04,57,10.60
2017,06,21,04,58,10.60
2017,06,21,04,59,10.60
2017,06,21,05,00,10.60
2017,06,21,05,01,10.60
2017,06,21,05,02,10.60
2017,06,21,05,03,10.60
2017,06,21,05,04,10.60
2017,06,21,05,05,10.60
2017,06,21,05,06,10.60
2017,06,21,05,07,10.60
2017,06,21,05,08,10.60
2017,06,21,05,09,10.60
2017,06,21,05,10,10.60
2017,06,21,05,11,10.60
2017,06,21,05,12,10.60
2017,06,21,05,13,10.60
2017,06,21,05,14,10.60
2017,06,21,05,15,10.60
2017,06,21,05,16,10.60
2017,06,21,05,17,10.60
2017,06,21,05,18,10.60
2017,06,21,05,19,10.60
2017,06,21,05,20,10.60
2017,06,21,05,21,10.60
2017,06,21,05,22,10.60
2017,06,21,05,23,10.60
2017,06,21,05,24,10.60
2017,06,21,05,25,10.60
2017,06,21,05,26,10.60
2017,06,21,05,27,10.60
2017,06,21,05,28,10.60
2017,06,21,05,29,10.60
2017,06,21,05,30,10.60
2017,06,21,05,31,10.60
2017,06,21,05,32,10.60
2017,06,21,05,33,10.60
2017,06,21,05,34,10.60
2017,06,21,05,35,10.60
2017,06,21,05,36,10.50
2017,06,21,05,37,10.40
2017,06,21,05,38,10.40
2017,06,21,05,39,10.40
2017,06,21,05,40,10.40
2017,06,21,05,41,10.40
2017,06,21,05,42,10.40
2017,06,21,05,43,10.50
2017,06,21,05,44,10.60
2017,06,21,05,45,10.60
2017,06,21,05,46,10.60
2017,06,21,05,47,10.60
2017,06,21,05,48,10.60
2017,06,21,05,49,10.60
2017,06,21,05,50,10.60
2017,06,21,05,51,10.60
2017,06,21,05,52,10.60
2017,06,21,05,53,10.60
2017,06,21,05,54,10.60
2017,06,21,05,55,10.60
2017,06,21,05,56,10.60
2017,06,21,05,57,10.60
2017,06,21,05,58,10.60
2017,06,21,05,59,10.60
2017,06,21,06,00,10.60
2017,06,21,06,01,10.60
2017,06,21,06,02,10.70
2017,06,21,06,03,10.70
2017,06,21,06,04,10.70
2017,06,21,06,05,10.70
2017,06,21,06,06,10.70
2017,06,21,06,07,10.80
2017,06,21,06,08,10.80
2017,06,21,06,09,10.80
2017,06,21,06,10,10.80
2017,06,21,06,11,10.90
2017,06,21,06,12,10.90
2017,06,21,06,13,10.90
2017,06,21,06,14,10.90
2017,06,21,06,15,10.90
2017,06,21,06,16,10.90
2017,06,21,06,17,11.10
2017,06,21,06,18,11.10
2017,06,21,06,19,11.10
2017,06,21,06,20,11.10
2017,06,21,06,21,11.10
2017,06,21,06,22,11.10
2017,06,21,06,23,11.20
2017,06,21,06,24,11.20
2017,06,21,06,25,11.20
2017,06,21,06,26,11.30
2017,06,21,06,27,11.30
2017,06,21,06,28,11.30
2017,06,21,06,29,11.40
2017,06,21,06,30,11.40
2017,06,21,06,31,11.40
2017,06,21,06,32,11.40
2017,06,21,06,33,11.40
2017,06,21,06,34,11.40
2017,06,21,06,35,11.50
2017,06,21,06,36,11.60
2017,06,21,06,37,11.60
2017,06,21,06,38,11.60
2017,06,21,06,39,11.60
2017,06,21,06,40,11.70
2017,06,21,06,41,11.70
2017,06,21,06,42,11.70
2017,06,21,06,43,11.80
2017,06,21,06,44,11.80
2017,06,21,06,45,11.80
2017,06,21,06,46,11.80
2017,06,21,06,47,11.80
2017,06,21,06,48,11.90
2017,06,21,06,49,11.90
2017,06,21,06,50,11.90
2017,06,21,06,51,12.00
2017,06,21,06,52,12.00
2017,06,21,06,53,12.10
2017,06,21,06,54,12.10
2017,06,21,06,55,12.10
2017,06,21,06,56,12.20
2017,06,21,06,57,12.20
2017,06,21,06,58,12.30
2017,06,21,06,59,12.30
2017,06,21,07,00,12.30
2017,06,21,07,01,12.30
2017,06,21,07,02,12.30
2017,06,21,07,03,12.40
2017,06,21,07,04,12.40
2017,06,21,07,05,12.40
2017,06,21,07,06,12.50
2017,06,21,07,07,12.50
2017,06,21,07,08,12.50
2017,06,21,07,09,12.60
2017,06,21,07,10,12.60
2017,06,21,07,11,12.60
2017,06,21,07,12,12.70
2017,06,21,07,13,12.70
2017,06,21,07,14,12.70
2017,06,21,07,15,12.80
2017,06,21,07,16,12.80
2017,06,21,07,17,12.80
2017,06,21,07,18,12.80
2017,06,21,07,19,12.80
2017,06,21,07,20,12.80
2017,06,21,07,21,12.80
2017,06,21,07,22,12.80
2017,06,21,07,23,12.90
2017,06,21,07,24,12.90
2017,06,21,07,25,12.90
2017,06,21,07,26,12.90
2017,06,21,07,27,12.90
2017,06,21,07,28,12.90
2017,06,21,07,29,12.90
2017,06,21,07,30,13.00
2017,06,21,07,31,13.00
2017,06,21,07,32,13.10
2017,06,21,07,33,13.10
2017,06,21,07,34,13.10
2017,06,21,07,35,13.10
2017,06,21,07,36,13.10
2017,06,21,07,37,13.20
2017,06,21,07,38,13.20
2017,06,21,07,39,13.30
2017,06,21,07,40,13.30
2017,06,21,07,41,13.30
2017,06,21,07,42,13.40
2017,06,21,07,43,13.40
2017,06,21,07,44,13.40
2017,06,21,07,45,13.40
2017,06,21,07,46,13.50
2017,06,21,07,47,13.50
2017,06,21,07,48,13.50
2017,06,21,07,49,13.50
2017,06,21,07,50,13.60
2017,06,21,07,51,13.70
2017,06,21,07,52,13.70
2017,06,21,07,53,13.80
2017,06,21,07,54,13.80
2017,06,21,07,55,13.90
2017,06,21,07,56,14.00
2017,06,21,07,57,14.00
2017,06,21,07,58,14.10
2017,06,21,07,59,14.10
2017,06,21,08,00,14.20
2017,06,21,08,01,14.20
2017,06,21,08,02,14.20
2017,06,21,08,03,14.20
2017,06,21,08,04,14.30
2017,06,21,08,05,14.30
2017,06,21,08,06,14.30
2017,06,21,08,07,14.30
2017,06,21,08,08,14.30
2017,06,21,08,09,14.30
2017,06,21,08,10,14.30
2017,06,21,08,11,14.40
2017,06,21,08,12,14.40
2017,06,21,08,13,14.40
2017,06,21,08,14,14.40
2017,06,21,08,15,14.40
2017,06,21,08,16,14.50
2017,06,21,08,17,14.50
2017,06,21,08,18,14.60
2017,06,21,08,19,14.60
2017,06,21,08,20,14.70
2017,06,21,08,21,14.70
2017,06,21,08,22,14.80
2017,06,21,08,23,14.90
2017,06,21,08,24,14.90
2017,06,21,08,25,15.00
2017,06,21,08,26,15.00
2017,06,21,08,27,15.00
2017,06,21,08,28,15.00
2017,06,21,08,29,15.00
2017,06,21,08,30,14.90
2017,06,21,08,31,14.90
2017,06,21,08,32,14.90
2017,06,21,08,33,14.90
2017,06,21,08,34,15.00
2017,06,21,08,35,15.00
2017,06,21,08,36,15.10
2017,06,21,08,37,15.20
2017,06,21,08,38,15.30
2017,06,21,08,39,15.30
2017,06,21,08,40,15.30
2017,06,21,08,41,15.30
2017,06,21,08,42,15.30
2017,06,21,08,43,15.30
2017,06,21,08,44,15.40
2017,06,21,08,45,15.40
2017,06,21,08,46,15.40
2017,06,21,08,47,15.40
2017,06,21,08,48,15.40
2017,06,21,08,49,15.50
2017,06,21,08,50,15.50
2017,06,21,08,51,15.60
2017,06,21,08,52,15.60
2017,06,21,08,53,15.60
2017,06,21,08,54,15.60
2017,06,21,08,55,15.60
2017,06,21,08,56,15.60
2017,06,21,08,57,15.60
2017,06,21,08,58,15.70
2017,06,21,08,59,15.70
2017,06,21,09,00,15.80
2017,06,21,09,01,15.80
2017,06,21,09,02,16.00
2017,06,21,09,03,16.10
2017,06,21,09,04,16.10
2017,06,21,09,05,16.20
2017,06,21,09,06,16.20
2017,06,21,09,07,16.20
2017,06,21,09,08,16.30
2017,06,21,09,09,16.30
2017,06,21,09,10,16.40
2017,06,21,09,11,16.40
2017,06,21,09,12,16.40
2017,06,21,09,13,16.40
2017,06,21,09,14,16.40
2017,06,21,09,15,16.60
2017,06,21,09,16,16.60
2017,06,21,09,17,16.60
2017,06,21,09,18,16.70
2017,06,21,09,19,16.70
2017,06,21,09,20,16.50
2017,06,21,09,21,16.40
2017,06,21,09,22,16.40
2017,06,21,09,23,16.40
2017,06,21,09,24,16.40
2017,06,21,09,25,16.40
2017,06,21,09,26,16.40
2017,06,21,09,27,16.50
2017,06,21,09,28,16.60
2017,06,21,09,29,16.70
2017,06,21,09,30,16.70
2017,06,21,09,31,16.70
2017,06,21,09,32,16.60
2017,06,21,09,33,16.60
2017,06,21,09,34,16.70
2017,06,21,09,35,16.70
2017,06,21,09,36,16.70
2017,06,21,09,37,16.70
2017,06,21,09,38,16.70
2017,06,21,09,39,16.70
2017,06,21,09,40,16.70
2017,06,21,09,41,16.80
2017,06,21,09,42,16.90
2017,06,21,09,43,17.00
2017,06,21,09,44,17.00
2017,06,21,09,45,17.10
2017,06,21,09,46,17.20
2017,06,21,09,47,17.30
2017,06,21,09,48,17.30
2017,06,21,09,49,17.30
2017,06,21,09,50,17.40
2017,06,21,09,51,17.40
2017,06,21,09,52,17.50
2017,06,21,09,53,17.60
2017,06,21,09,54,17.70
2017,06,21,09,55,17.70
2017,06,21,09,56,17.70
2017,06,21,09,57,17.60
2017,06,21,09,58,17.60
2017,06,21,09,59,17.60
2017,06,21,10,00,17.60
2017,06,21,10,01,17.60
2017,06,21,10,02,17.60
2017,06,21,10,03,17.60
2017,06,21,10,04,17.70
2017,06,21,10,05,17.80
2017,06,21,10,06,17.70
2017,06,21,10,07,17.70
2017,06,21,10,08,17.60
2017,06,21,10,09,17.50
2017,06,21,10,10,17.40
2017,06,21,10,11,17.40
2017,06,21,10,12,17.50
2017,06,21,10,13,17.50
2017,06,21,10,14,17.50
2017,06,21,10,15,17.50
2017,06,21,10,16,17.50
2017,06,21,10,17,17.50
2017,06,21,10,18,17.40
2017,06,21,10,19,17.30
2017,06,21,10,20,17.30
2017,06,21,10,21,17.30
2017,06,21,10,22,17.30
2017,06,21,10,23,17.30
2017,06,21,10,24,17.20
2017,06,21,10,25,17.20
2017,06,21,10,26,17.20
2017,06,21,10,27,17.10
2017,06,21,10,28,17.00
2017,06,21,10,29,17.00
2017,06,21,10,30,17.00
2017,06,21,10,31,16.90
2017,06,21,10,32,16.90
2017,06,21,10,33,16.80
2017,06,21,10,34,16.70
2017,06,21,10,35,16.70
2017,06,21,10,36,16.70
2017,06,21,10,37,16.70
2017,06,21,10,38,16.70
2017,06,21,10,39,16.60
2017,06,21,10,40,16.60
2017,06,21,10,41,16.60
2017,06,21,10,42,16.60
2017,06,21,10,43,16.60
2017,06,21,10,44,16.40
2017,06,21,10,45,16.40
2017,06,21,10,46,16.40
2017,06,21,10,47,16.50
2017,06,21,10,48,16.60
2017,06,21,10,49,16.60
2017,06,21,10,50,16.60
2017,06,21,10,51,16.60
2017,06,21,10,52,16.60
2017,06,21,10,53,16.60
2017,06,21,10,54,16.50
2017,06,21,10,55,16.40
2017,06,21,10,56,16.50
2017,06,21,10,57,16.60
2017,06,21,10,58,16.70
2017,06,21,10,59,16.80
2017,06,21,11,00,16.90
2017,06,21,11,01,17.00
2017,06,21,11,02,17.10
2017,06,21,11,03,17.20
2017,06,21,11,04,17.30
2017,06,21,11,05,17.40
2017,06,21,11,06,17.50
2017,06,21,11,07,17.60
2017,06,21,11,08,17.70
2017,06,21,11,09,17.80
2017,06,21,11,10,17.80
2017,06,21,11,11,17.80
2017,06,21,11,12,17.80
2017,06,21,11,13,17.80
2017,06,21,11,14,17.80
2017,06,21,11,15,17.90
2017,06,21,11,16,17.90
2017,06,21,11,17,17.90
2017,06,21,11,18,17.90
2017,06,21,11,19,17.80
2017,06,21,11,20,17.70
2017,06,21,11,21,17.70
2017,06,21,11,22,17.70
2017,06,21,11,23,17.60
2017,06,21,11,24,17.60
2017,06,21,11,25,17.60
2017,06,21,11,26,17.60
2017,06,21,11,27,17.60
2017,06,21,11,28,17.70
2017,06,21,11,29,17.80
2017,06,21,11,30,17.70
2017,06,21,11,31,17.80
2017,06,21,11,32,17.80
2017,06,21,11,33,17.70
2017,06,21,11,34,17.70
2017,06,21,11,35,17.70
2017,06,21,11,36,17.70
2017,06,21,11,37,17.80
2017,06,21,11,38,17.90
2017,06,21,11,39,17.90
2017,06,21,11,40,17.90
2017,06,21,11,41,17.90
2017,06,21,11,42,17.90
2017,06,21,11,43,17.80
2017,06,21,11,44,17.70
2017,06,21,11,45,17.60
2017,06,21,11,46,17.60
2017,06,21,11,47,17.60
2017,06,21,11,48,17.60
2017,06,21,11,49,17.70
2017,06,21,11,50,17.80
2017,06,21,11,51,17.90
2017,06,21,11,52,18.00
2017,06,21,11,53,18.10
2017,06,21,11,54,18.20
2017,06,21,11,55,18.30
2017,06,21,11,56,18.30
2017,06,21,11,57,18.30
2017,06,21,11,58,18.30
2017,06,21,11,59,18.30
2017,06,21,12,00,18.40
2017,06,21,12,01,18.50
2017,06,21,12,02,18.50
2017,06,21,12,03,18.50
2017,06,21,12,04,18.50
2017,06,21,12,05,18.40
2017,06,21,12,06,18.20
2017,06,21,12,07,18.20
2017,06,21,12,08,18.30
2017,06,21,12,09,18.30
2017,06,21,12,10,18.20
2017,06,21,12,11,18.00
2017,06,21,12,12,17.80
2017,06,21,12,13,17.70
2017,06,21,12,14,17.80
2017,06,21,12,15,17.70
2017,06,21,12,16,17.80
2017,06,21,12,17,17.90
2017,06,21,12,18,17.90
2017,06,21,12,19,17.90
2017,06,21,12,20,18.00
2017,06,21,12,21,18.10
2017,06,21,12,22,18.10
2017,06,21,12,23,18.20
2017,06,21,12,24,18.20
2017,06,21,12,25,18.40
2017,06,21,12,26,18.50
2017,06,21,12,27,18.60
2017,06,21,12,28,18.70
2017,06,21,12,29,18.80
2017,06,21,12,30,18.70
2017,06,21,12,31,18.40
2017,06,21,12,32,18.20
2017,06,21,12,33,18.10
2017,06,21,12,34,18.10
2017,06,21,12,35,18.00
2017,06,21,12,36,17.90
2017,06,21,12,37,18.00
2017,06,21,12,38,18.10
2017,06,21,12,39,18.30
2017,06,21,12,40,18.40
2017,06,21,12,41,18.20
2017,06,21,12,42,18.20
2017,06,21,12,43,18.10
2017,06,21,12,44,18.10
2017,06,21,12,45,18.20
2017,06,21,12,46,18.40
2017,06,21,12,47,18.60
2017,06,21,12,48,18.70
2017,06,21,12,49,18.70
2017,06,21,12,50,18.80
2017,06,21,12,51,18.80
2017,06,21,12,52,18.80
2017,06,21,12,53,18.80
2017,06,21,12,54,18.90
2017,06,21,12,55,19.00
2017,06,21,12,56,19.10
2017,06,21,12,57,19.20
2017,06,21,12,58,19.30
2017,06,21,12,59,19.20
2017,06,21,13,00,19.20
2017,06,21,13,01,19.30
2017,06,21,13,02,19.30
2017,06,21,13,03,19.30
2017,06,21,13,04,19.10
2017,06,21,13,05,19.10
2017,06,21,13,06,19.10
2017,06,21,13,07,18.90
2017,06,21,13,08,18.60
2017,06,21,13,09,18.40
2017,06,21,13,10,18.40
2017,06,21,13,11,18.40
2017,06,21,13,12,18.40
2017,06,21,13,13,18.20
2017,06,21,13,14,18.20
2017,06,21,13,15,18.20
2017,06,21,13,16,18.20
2017,06,21,13,17,18.20
2017,06,21,13,18,18.10
2017,06,21,13,19,18.00
2017,06,21,13,20,17.90
2017,06,21,13,21,17.90
2017,06,21,13,22,17.90
2017,06,21,13,23,17.90
2017,06,21,13,24,17.90
2017,06,21,13,25,17.90
2017,06,21,13,26,17.80
2017,06,21,13,27,17.70
2017,06,21,13,28,17.60
2017,06,21,13,29,17.50
2017,06,21,13,30,17.40
2017,06,21,13,31,17.60
2017,06,21,13,32,17.80
2017,06,21,13,33,17.90
2017,06,21,13,34,18.10
2017,06,21,13,35,18.10
2017,06,21,13,36,18.10
2017,06,21,13,37,18.10
2017,06,21,13,38,18.40
2017,06,21,13,39,18.60
2017,06,21,13,40,18.60
2017,06,21,13,41,18.50
2017,06,21,13,42,18.50
2017,06,21,13,43,18.50
2017,06,21,13,44,18.50
2017,06,21,13,45,18.60
2017,06,21,13,46,18.70
2017,06,21,13,47,18.70
2017,06,21,13,48,18.60
2017,06,21,13,49,18.50
2017,06,21,13,50,18.40
2017,06,21,13,51,18.20
2017,06,21,13,52,18.00
2017,06,21,13,53,17.90
2017,06,21,13,54,17.90
2017,06,21,13,55,17.70
2017,06,21,13,56,17.70
2017,06,21,13,57,17.90
2017,06,21,13,58,18.10
2017,06,21,13,59,18.20
2017,06,21,14,00,18.30
2017,06,21,14,01,18.40
2017,06,21,14,02,18.40
2017,06,21,14,03,18.40
2017,06,21,14,04,18.50
2017,06,21,14,05,18.80
2017,06,21,14,06,18.90
2017,06,21,14,07,19.10
2017,06,21,14,08,19.20
2017,06,21,14,09,19.40
2017,06,21,14,10,19.50
2017,06,21,14,11,19.50
2017,06,21,14,12,19.60
2017,06,21,14,13,19.40
2017,06,21,14,14,19.30
2017,06,21,14,15,19.00
2017,06,21,14,16,18.70
2017,06,21,14,17,18.40
2017,06,21,14,18,18.20
2017,06,21,14,19,18.00
2017,06,21,14,20,17.90
2017,06,21,14,21,17.90
2017,06,21,14,22,17.80
2017,06,21,14,23,17.90
2017,06,21,14,24,17.90
2017,06,21,14,25,17.80
2017,06,21,14,26,17.80
2017,06,21,14,27,17.70
2017,06,21,14,28,17.70
2017,06,21,14,29,17.50
2017,06,21,14,30,17.50
2017,06,21,14,31,17.50
2017,06,21,14,32,17.60
2017,06,21,14,33,17.70
2017,06,21,14,34,17.70
2017,06,21,14,35,17.60
2017,06,21,14,36,17.40
2017,06,21,14,37,17.30
2017,06,21,14,38,17.20
2017,06,21,14,39,17.30
2017,06,21,14,40,17.20
2017,06,21,14,41,17.20
2017,06,21,14,42,17.30
2017,06,21,14,43,17.30
2017,06,21,14,44,17.30
2017,06,21,14,45,17.40
2017,06,21,14,46,17.40
2017,06,21,14,47,17.40
2017,06,21,14,48,17.40
2017,06,21,14,49,17.40
2017,06,21,14,50,17.40
2017,06,21,14,51,17.30
2017,06,21,14,52,17.30
2017,06,21,14,53,17.30
2017,06,21,14,54,17.30
2017,06,21,14,55,17.20
2017,06,21,14,56,17.20
2017,06,21,14,57,17.10
2017,06,21,14,58,17.00
2017,06,21,14,59,16.90
2017,06,21,15,00,17.00
2017,06,21,15,01,17.00
2017,06,21,15,02,16.90
2017,06,21,15,03,16.80
2017,06,21,15,04,16.70
2017,06,21,15,05,16.70
2017,06,21,15,06,16.70
2017,06,21,15,07,16.70
2017,06,21,15,08,16.70
2017,06,21,15,09,16.60
2017,06,21,15,10,16.60
2017,06,21,15,11,16.60
2017,06,21,15,12,16.50
2017,06,21,15,13,16.40
2017,06,21,15,14,16.40
2017,06,21,15,15,16.50
2017,06,21,15,16,16.60
2017,06,21,15,17,16.60
2017,06,21,15,18,16.60
2017,06,21,15,19,16.70
2017,06,21,15,20,16.80
2017,06,21,15,21,17.00
2017,06,21,15,22,17.20
2017,06,21,15,23,17.30
2017,06,21,15,24,17.30
2017,06,21,15,25,17.20
2017,06,21,15,26,17.00
2017,06,21,15,27,16.80
2017,06,21,15,28,16.60
2017,06,21,15,29,16.40
2017,06,21,15,30,16.40
2017,06,21,15,31,16.40
2017,06,21,15,32,16.40
2017,06,21,15,33,16.60
2017,06,21,15,34,16.60
2017,06,21,15,35,16.70
2017,06,21,15,36,16.70
2017,06,21,15,37,16.70
2017,06,21,15,38,16.70
2017,06,21,15,39,16.70
2017,06,21,15,40,16.70
2017,06,21,15,41,16.70
2017,06,21,15,42,16.80
2017,06,21,15,43,16.80
2017,06,21,15,44,16.90
2017,06,21,15,45,16.90
2017,06,21,15,46,17.00
2017,06,21,15,47,17.10
2017,06,21,15,48,17.10
2017,06,21,15,49,16.90
2017,06,21,15,50,16.80
2017,06,21,15,51,16.70
2017,06,21,15,52,16.70
2017,06,21,15,53,16.70
2017,06,21,15,54,16.80
2017,06,21,15,55,16.80
2017,06,21,15,56,16.80
2017,06,21,15,57,16.90
2017,06,21,15,58,17.00
2017,06,21,15,59,17.10
2017,06,21,16,00,17.20
2017,06,21,16,01,17.10
2017,06,21,16,02,17.10
2017,06,21,16,03,17.00
2017,06,21,16,04,17.00
2017,06,21,16,05,17.00
2017,06,21,16,06,17.00
2017,06,21,16,07,16.90
2017,06,21,16,08,16.80
2017,06,21,16,09,16.70
2017,06,21,16,10,16.70
2017,06,21,16,11,16.70
2017,06,21,16,12,16.70
2017,06,21,16,13,16.70
2017,06,21,16,14,16.80
2017,06,21,16,15,16.90
2017,06,21,16,16,17.00
2017,06,21,16,17,17.00
2017,06,21,16,18,17.00
2017,06,21,16,19,16.80
2017,06,21,16,20,16.70
2017,06,21,16,21,16.50
2017,06,21,16,22,16.40
2017,06,21,16,23,16.40
2017,06,21,16,24,16.50
2017,06,21,16,25,16.60
2017,06,21,16,26,16.70
2017,06,21,16,27,16.70
2017,06,21,16,28,16.70
2017,06,21,16,29,16.70
2017,06,21,16,30,16.60
2017,06,21,16,31,16.60
2017,06,21,16,32,16.60
2017,06,21,16,33,16.60
2017,06,21,16,34,16.60
2017,06,21,16,35,16.60
2017,06,21,16,36,16.70
2017,06,21,16,37,16.90
2017,06,21,16,38,17.00
2017,06,21,16,39,17.20
2017,06,21,16,40,17.20
2017,06,21,16,41,17.10
2017,06,21,16,42,16.90
2017,06,21,16,43,16.80
2017,06,21,16,44,16.80
2017,06,21,16,45,16.90
2017,06,21,16,46,17.00
2017,06,21,16,47,17.10
2017,06,21,16,48,17.20
2017,06,21,16,49,17.20
2017,06,21,16,50,17.20
2017,06,21,16,51,17.10
2017,06,21,16,52,17.10
2017,06,21,16,53,17.10
2017,06,21,16,54,17.10
2017,06,21,16,55,17.20
2017,06,21,16,56,17.30
2017,06,21,16,57,17.30
2017,06,21,16,58,17.20
2017,06,21,16,59,17.00
2017,06,21,17,00,16.90
2017,06,21,17,01,16.80
2017,06,21,17,02,16.80
2017,06,21,17,03,16.80
2017,06,21,17,04,16.90
2017,06,21,17,05,16.90
2017,06,21,17,06,16.90
2017,06,21,17,07,16.90
2017,06,21,17,08,16.90
2017,06,21,17,09,16.80
2017,06,21,17,10,16.80
2017,06,21,17,11,16.80
2017,06,21,17,12,16.80
2017,06,21,17,13,16.80
2017,06,21,17,14,16.80
2017,06,21,17,15,16.80
2017,06,21,17,16,16.90
2017,06,21,17,17,17.00
2017,06,21,17,18,17.00
2017,06,21,17,19,17.00